EN

Hourly Weather Acaponeta

Today, 25 November, Wednesday

Time Temperature Precipitation Wind Pressure Humidity
00:00 +24°C° 0 mm 1 mps 755 mmHg 76%
01:00 +24°C° 0 mm 1 mps 755 mmHg 74%
02:00 +24°C° 0 mm 1 mps 755 mmHg 73%
03:00 +24°C° 0 mm 1 mps 755 mmHg 70%
04:00 +24°C° 0 mm 1 mps 755 mmHg 67%
05:00 +24°C° 0 mm 1 mps 755 mmHg 66%
06:00 +25°C° 0 mm 1 mps 755 mmHg 61%
07:00 +26°C° 0 mm 1 mps 756 mmHg 56%
08:00 +28°C° 0 mm 1 mps 756 mmHg 51%
09:00 +30°C° 0 mm 1 mps 756 mmHg 45%
10:00 +33°C° 0 mm 1 mps 756 mmHg 38%
11:00 +36°C° 0 mm 1 mps 755 mmHg 32%
12:00 +37°C° 0 mm 2 mps 755 mmHg 33%
13:00 +37°C° 0 mm 2 mps 754 mmHg 33%
14:00 +37°C° 0 mm 3 mps 753 mmHg 34%
15:00 +34°C° 0 mm 2 mps 753 mmHg 44%
16:00 +31°C° 0 mm 2 mps 753 mmHg 54%
17:00 +29°C° 0 mm 2 mps 754 mmHg 64%
18:00 +28°C° 0 mm 1 mps 754 mmHg 67%
19:00 +26°C° 0 mm 1 mps 755 mmHg 70%
20:00 +25°C° 0 mm 1 mps 756 mmHg 73%
21:00 +25°C° 0 mm 1 mps 756 mmHg 72%
22:00 +25°C° 0 mm 1 mps 755 mmHg 71%
23:00 +24°C° 0 mm 1 mps 755 mmHg 70%

Tomorrow, 26 November, Thursday

Time Temperature Precipitation Wind Pressure Humidity
00:00 +24°C° 0 mm 1 mps 755 mmHg 70%
01:00 +24°C° 0 mm 1 mps 755 mmHg 69%
02:00 +24°C° 0 mm 1 mps 755 mmHg 69%
03:00 +24°C° 0 mm 1 mps 754 mmHg 67%
04:00 +24°C° 0 mm 1 mps 754 mmHg 65%
05:00 +24°C° 0 mm 1 mps 754 mmHg 63%
06:00 +25°C° 0 mm 1 mps 754 mmHg 59%
07:00 +26°C° 0 mm 1 mps 754 mmHg 55%
08:00 +28°C° 0 mm 1 mps 755 mmHg 51%
09:00 +30°C° 0 mm 1 mps 754 mmHg 45%
10:00 +33°C° 0 mm 1 mps 754 mmHg 39%
11:00 +35°C° 0 mm 1 mps 754 mmHg 33%
12:00 +36°C° 0 mm 2 mps 753 mmHg 35%
13:00 +36°C° 0 mm 2 mps 752 mmHg 36%
14:00 +36°C° 0 mm 3 mps 752 mmHg 37%
15:00 +32°C° 0 mm 2 mps 752 mmHg 46%
16:00 +30°C° 0 mm 1 mps 752 mmHg 55%
17:00 +28°C° 0 mm 1 mps 752 mmHg 64%
18:00 +27°C° 0 mm 1 mps 753 mmHg 66%
19:00 +26°C° 0 mm 1 mps 754 mmHg 69%
20:00 +25°C° 0 mm 1 mps 754 mmHg 71%
21:00 +25°C° 0 mm 1 mps 754 mmHg 72%
22:00 +24°C° 0 mm 1 mps 755 mmHg 73%
23:00 +24°C° 0 mm 1 mps 755 mmHg 74%

Day after tomorrow, 27 November, Friday

Time Temperature Precipitation Wind Pressure Humidity
00:00 +24°C° 0 mm 1 mps 755 mmHg 74%
01:00 +24°C° 0 mm 1 mps 754 mmHg 73%
02:00 +24°C° 0 mm 1 mps 754 mmHg 72%
03:00 +24°C° 0 mm 1 mps 754 mmHg 70%
04:00 +23°C° 0 mm 1 mps 754 mmHg 69%
05:00 +23°C° 0 mm 1 mps 754 mmHg 67%
06:00 +25°C° 0 mm 1 mps 754 mmHg 62%
07:00 +26°C° 0 mm 1 mps 755 mmHg 58%
08:00 +26°C° 0 mm 0 mps 755 mmHg 54%
09:00 +30°C° 0 mm 1 mps 755 mmHg 48%
10:00 +32°C° 0 mm 1 mps 754 mmHg 43%
11:00 +35°C° 0 mm 2 mps 754 mmHg 38%
12:00 +35°C° 0 mm 2 mps 754 mmHg 38%
13:00 +35°C° 0 mm 3 mps 753 mmHg 39%
14:00 +35°C° 0 mm 3 mps 752 mmHg 40%
15:00 +32°C° 0 mm 2 mps 753 mmHg 48%
16:00 +30°C° 0 mm 2 mps 753 mmHg 56%
17:00 +28°C° 0 mm 1 mps 753 mmHg 65%
18:00 +27°C° 0 mm 1 mps 754 mmHg 69%
19:00 +26°C° 0 mm 1 mps 754 mmHg 73%
20:00 +25°C° 0 mm 1 mps 755 mmHg 78%
21:00 +25°C° 0 mm 1 mps 755 mmHg 78%
22:00 +24°C° 0 mm 1 mps 755 mmHg 78%
23:00 +24°C° 0 mm 1 mps 755 mmHg 77%

28 November, Saturday

Time Temperature Precipitation Wind Pressure Humidity
00:00 +24°C° 0 mm 1 mps 754 mmHg 77%
01:00 +24°C° 0 mm 1 mps 754 mmHg 77%
02:00 +24°C° 0 mm 1 mps 754 mmHg 76%
03:00 +23°C° 0 mm 1 mps 754 mmHg 75%
04:00 +23°C° 0 mm 1 mps 754 mmHg 74%
05:00 +23°C° 0 mm 1 mps 754 mmHg 73%
06:00 +25°C° 0 mm 1 mps 754 mmHg 68%
07:00 +24°C° 0 mm 0 mps 754 mmHg 64%
08:00 +25°C° 0 mm 0 mps 754 mmHg 60%
09:00 +27°C° 0 mm 0 mps 754 mmHg 54%
10:00 +31°C° 0 mm 1 mps 754 mmHg 48%
11:00 +34°C° 0 mm 1 mps 754 mmHg 42%
12:00 +35°C° 0 mm 2 mps 753 mmHg 42%
13:00 +35°C° 0 mm 2 mps 752 mmHg 43%
14:00 +35°C° 0 mm 3 mps 752 mmHg 43%
15:00 +32°C° 0 mm 2 mps 752 mmHg 52%
16:00 +30°C° 0 mm 2 mps 752 mmHg 61%
17:00 +28°C° 0 mm 1 mps 753 mmHg 70%
18:00 +26°C° 0 mm 1 mps 753 mmHg 74%
19:00 +25°C° 0 mm 1 mps 753 mmHg 78%
20:00 +24°C° 0 mm 1 mps 754 mmHg 82%
21:00 +23°C° 0 mm 1 mps 754 mmHg 82%
22:00 +23°C° 0 mm 1 mps 754 mmHg 82%
23:00 +23°C° 0 mm 1 mps 754 mmHg 82%

29 November, Sunday

Time Temperature Precipitation Wind Pressure Humidity
00:00 +23°C° 0 mm 1 mps 754 mmHg 82%
01:00 +22°C° 0 mm 1 mps 753 mmHg 82%
02:00 +22°C° 0 mm 1 mps 753 mmHg 81%
03:00 +22°C° 0 mm 1 mps 753 mmHg 80%
04:00 +22°C° 0 mm 1 mps 753 mmHg 79%
05:00 +22°C° 0 mm 1 mps 753 mmHg 78%
06:00 +23°C° 0 mm 1 mps 754 mmHg 72%
07:00 +25°C° 0 mm 1 mps 754 mmHg 67%
08:00 +26°C° 0 mm 1 mps 754 mmHg 62%
09:00 +28°C° 0 mm 1 mps 754 mmHg 56%
10:00 +30°C° 0 mm 1 mps 754 mmHg 51%
11:00 +32°C° 0 mm 2 mps 754 mmHg 46%
12:00 +34°C° 0 mm 2 mps 753 mmHg 44%
13:00 +34°C° 0 mm 2 mps 753 mmHg 43%
14:00 +34°C° 0 mm 3 mps 752 mmHg 42%
15:00 +31°C° 0 mm 2 mps 753 mmHg 52%
16:00 +28°C° 0 mm 2 mps 753 mmHg 62%
17:00 +26°C° 0 mm 1 mps 753 mmHg 72%
18:00 +25°C° 0 mm 1 mps 754 mmHg 77%
19:00 +23°C° 0 mm 1 mps 754 mmHg 82%
20:00 +20°C° 0 mm 0 mps 755 mmHg 87%
21:00 +20°C° 0 mm 0 mps 755 mmHg 87%
22:00 +22°C° 0 mm 1 mps 755 mmHg 87%
23:00 +21°C° 0 mm 1 mps 755 mmHg 88%

30 November, Monday

Time Temperature Precipitation Wind Pressure Humidity
00:00 +21°C° 0 mm 1 mps 755 mmHg 87%
01:00 +21°C° 0 mm 1 mps 755 mmHg 86%
02:00 +21°C° 0 mm 1 mps 755 mmHg 85%
03:00 +21°C° 0 mm 1 mps 755 mmHg 83%
04:00 +20°C° 0 mm 1 mps 755 mmHg 80%
05:00 +20°C° 0 mm 1 mps 755 mmHg 78%
06:00 +22°C° 0 mm 1 mps 755 mmHg 72%
07:00 +21°C° 0 mm 0 mps 755 mmHg 66%
08:00 +23°C° 0 mm 0 mps 756 mmHg 60%
09:00 +27°C° 0 mm 1 mps 755 mmHg 54%
10:00 +29°C° 0 mm 1 mps 755 mmHg 48%
11:00 +32°C° 0 mm 1 mps 755 mmHg 42%
12:00 +32°C° 0 mm 2 mps 754 mmHg 42%
13:00 +32°C° 0 mm 2 mps 753 mmHg 42%
14:00 +33°C° 0 mm 3 mps 753 mmHg 41%
15:00 +30°C° 0 mm 2 mps 753 mmHg 51%
16:00 +28°C° 0 mm 2 mps 753 mmHg 61%
17:00 +26°C° 0 mm 1 mps 753 mmHg 71%
18:00 +24°C° 0 mm 1 mps 754 mmHg 75%
19:00 +23°C° 0 mm 1 mps 755 mmHg 80%
20:00 +22°C° 0 mm 1 mps 755 mmHg 85%
21:00 +22°C° 0 mm 1 mps 756 mmHg 84%
22:00 +21°C° 0 mm 1 mps 756 mmHg 83%
23:00 +21°C° 0 mm 1 mps 756 mmHg 82%
Show more